Location: Bacharowice
(49.9333°N, 19.5833°E)
Time: 07:48:46
(UTC+00:00)

Cosmos 1328 Rocket - Pass Details

Date: 11 May 2021
Orbit: 600 x 627 km, 82.5° (Epoch: 21 June)

Event Time Altitude Azimuth Distance (km) Brightness Sun altitude
Exits shadow 19:07:41 - 169° (SSE) 2,587 6.3 -7.7°
Reaches altitude 10° 19:09:12 10° 164° (SSE) 1,997 5.7 -7.9°
Maximum altitude 19:13:24 44° 93° (E) 874 4.0 -8.4°
Drops below altitude 10° 19:17:36 10° 22° (NNE) 2,001 6.5 -8.9°
Sets 19:19:54 0° 16° (NNE) 2,908 7.4 -9.2°
